ARSAT 2 (40941 NORAD) Tracking and Keplerian Element Data

This shows tracking and keplerian element data for the satellite.

Feedback or suggestion? Click here.




ElementValue
Catalog40941
NameARSAT 2
Epoch Orbit3431
Epoch Day34.5245992
Epoch Year2025
RAAN276.69
Inclination0.0488
Eccentricity0.0001874
Argument of Perigee26.8406
Mean Anonmoly298.2432
Mean Motion1.00271378
Decay Rate-2.2E-06
L11 40941U 15054B 25034.52459920 -.00000220 00000+0 00000+0 0 9996
L22 40941 0.0488 276.6900 0001874 26.8406 298.2432 1.00271378 34316



Live tracking and technical data element details for ARSAT 2 (NORAD 40941). ARSAT 2 can be tracked NOW for your location showing map with azimuth and elevation plus other details from your city location.







IsCatalogInMostPopularTable: catalog: 40941, numindb: 550
Update: records affected: 1



GetName: 40941 ARSAT 2

Hit Count: updated at: Fri, 16 May 2025 11:38:40 GMT